Kelso-Longview, WA

11:21 PM PDT on May 24, 2017 (GMT -0700)
Kelso-Longview

Weather History for KKLS - February, 2012

Change the Weather History Date:

Sunday, February 26, 2012

  Actual Average Record
Temperature  
Mean Temperature 38 °F -  
Max Temperature 44 °F 49 °F 60 °F (2008)
Min Temperature 33 °F 33 °F 15 °F (2011)
Degree Days  
Heating Degree Days 26    
Moisture  
Dew Point 33 °F    
Average Humidity 87    
Maximum Humidity 93    
Minimum Humidity 61    
Precipitation  
Precipitation 0.26 in - - ()
Sea Level Pressure  
Sea Level Pressure 30.19 in    
Wind  
Wind Speed 4 mph (ESE)    
Max Wind Speed 12 mph    
Max Gust Speed 16 mph    
Visibility 9 miles    
Events      
Averages and records for this station are not official NWS values.
T = Trace of Precipitation, MM = Missing Value Source: NWS Daily Summary

Daily Weather History Graph

Daily Weather History Graph

Search for Another Location

Airport or City:

Trip Planner

Search our weather history database for the weather conditions in past years. The results will help you decide how hot, cold, wet, or windy it might be!

Date:

Astronomy

Feb. 26, 2012 Rise Set
Actual Time 6:56 AM PST 5:53 PM PST
Civil Twilight 6:26 AM PST 6:23 PM PST
Nautical Twilight 5:51 AM PST 6:58 PM PST
Astronomical Twilight 5:17 AM PST 7:32 PM PST
Moon 8:35 AM PST (2/26) 11:17 PM PST (2/26)
Length of Visible Light 11h 56m
Length of Day
10h 56m
Waxing Crescent, 21% of the Moon is Illuminated
Feb 26
Waxing Crescent
Feb 29
First Quarter
Mar 8
Full
Mar 14
Last Quarter
Mar 22
New

Hourly Weather History & Observations

Time (PST) Temp. Windchill Dew Point Humidity Pressure Visibility Wind Dir Wind Speed Gust Speed Precip Events Conditions
12:15 AM 35.6 °F 28.6 °F 33.8 °F 93% 30.30 in 10.0 mi SSE 9.2 mph - 0.01 in   Overcast
1:35 AM 35.6 °F 29.9 °F 33.8 °F 93% 30.30 in 10.0 mi SSE 6.9 mph - N/A   Mostly Cloudy
1:55 AM 35.6 °F 31.7 °F 33.8 °F 93% 30.30 in 10.0 mi SSE 4.6 mph - N/A   Mostly Cloudy
2:15 AM 35.6 °F 29.9 °F 33.8 °F 93% 30.30 in 10.0 mi SSE 6.9 mph - N/A   Overcast
2:35 AM 35.6 °F - 33.8 °F 93% 30.30 in 10.0 mi Calm Calm - N/A   Overcast
2:55 AM 35.6 °F 31.7 °F 33.8 °F 93% 30.28 in 4.0 mi SSE 4.6 mph - 0.02 in   Overcast
3:15 AM 35.6 °F 32.8 °F 33.8 °F 93% 30.28 in 6.0 mi SSE 3.5 mph - 0.03 in   Overcast
3:35 AM 35.6 °F - 33.8 °F 93% 30.27 in 4.0 mi Calm Calm - 0.08 in   Overcast
4:15 AM 35.6 °F 31.7 °F 33.8 °F 93% 30.26 in 10.0 mi SSE 4.6 mph - N/A   Overcast
4:35 AM 35.6 °F 30.7 °F 33.8 °F 93% 30.25 in 8.0 mi SE 5.8 mph - 0.01 in   Overcast
4:55 AM 35.6 °F 30.7 °F 33.8 °F 93% 30.25 in 7.0 mi SSE 5.8 mph - 0.01 in   Overcast
5:35 AM 35.6 °F 30.7 °F 33.8 °F 93% 30.24 in 10.0 mi SE 5.8 mph - 0.01 in   Mostly Cloudy
5:55 AM 35.6 °F 31.7 °F 33.8 °F 93% 30.23 in 10.0 mi SE 4.6 mph - 0.01 in   Overcast
6:15 AM 35.6 °F 31.7 °F 33.8 °F 93% 30.22 in 10.0 mi SE 4.6 mph - N/A   Overcast
6:55 AM 35.6 °F 31.7 °F 33.8 °F 93% 30.22 in 10.0 mi SE 4.6 mph - 0.01 in   Mostly Cloudy
7:15 AM 35.6 °F 32.8 °F 33.8 °F 93% 30.22 in 3.0 mi SSW 3.5 mph - 0.01 in   Overcast
7:35 AM 35.6 °F - 33.8 °F 93% 30.22 in 4.0 mi Calm Calm - 0.02 in   Overcast
7:55 AM 35.6 °F 31.7 °F 33.8 °F 93% 30.22 in 10.0 mi SE 4.6 mph - 0.02 in   Overcast
8:15 AM 37.4 °F 34.9 °F 33.8 °F 87% 30.22 in 10.0 mi SSE 3.5 mph - 0.01 in   Overcast
8:35 AM 37.4 °F - 33.8 °F 87% 30.22 in 9.0 mi Calm Calm - 0.02 in   Overcast
8:55 AM 37.4 °F 34.9 °F 33.8 °F 87% 30.22 in 10.0 mi South 3.5 mph - 0.02 in   Overcast
9:15 AM 37.4 °F - 33.8 °F 87% 30.22 in 10.0 mi Calm Calm - N/A   Overcast
9:35 AM 37.4 °F - 33.8 °F 87% 30.22 in 10.0 mi Calm Calm - 0.01 in   Overcast
9:55 AM 37.4 °F - 33.8 °F 87% 30.22 in 10.0 mi Calm Calm - 0.01 in   Overcast
10:15 AM 37.4 °F - 33.8 °F 87% 30.22 in 10.0 mi Calm Calm - N/A   Overcast
10:35 AM 37.4 °F - 33.8 °F 87% 30.21 in 10.0 mi Calm Calm - N/A   Overcast
10:55 AM 39.2 °F - 33.8 °F 81% 30.21 in 10.0 mi Calm Calm - N/A   Overcast
11:15 AM 39.2 °F - 35.6 °F 87% 30.20 in 10.0 mi Calm Calm - N/A   Mostly Cloudy
11:35 AM 39.2 °F - 33.8 °F 81% 30.20 in 10.0 mi Calm Calm - N/A   Overcast
11:55 AM 41.0 °F 38.0 °F 35.6 °F 81% 30.19 in 10.0 mi SE 4.6 mph - N/A   Mostly Cloudy
12:15 PM 42.8 °F 40.1 °F 33.8 °F 70% 30.19 in 10.0 mi ESE 4.6 mph - N/A   Mostly Cloudy
12:35 PM 41.0 °F - 33.8 °F 76% 30.18 in 10.0 mi Calm Calm - N/A   Overcast
12:55 PM 41.0 °F 38.0 °F 33.8 °F 76% 30.17 in 10.0 mi SSW 4.6 mph - N/A   Overcast
1:15 PM 42.8 °F 39.3 °F 35.6 °F 76% 30.16 in 10.0 mi SSW 5.8 mph - N/A   Scattered Clouds
1:35 PM 42.8 °F 41.1 °F 33.8 °F 70% 30.15 in 10.0 mi WNW 3.5 mph - N/A   Mostly Cloudy
1:55 PM 44.6 °F 40.2 °F 33.8 °F 66% 30.14 in 10.0 mi South 8.1 mph - N/A   Overcast
2:15 PM 42.8 °F 38.0 °F 30.2 °F 61% 30.15 in 10.0 mi NW 8.1 mph - N/A   Overcast
2:35 PM 39.2 °F 32.0 °F 33.8 °F 81% 30.15 in 10.0 mi NNE 11.5 mph - N/A   Overcast
2:55 PM 37.4 °F 32.1 °F 33.8 °F 87% 30.15 in 9.0 mi North 6.9 mph - N/A   Overcast
3:15 PM 37.4 °F 33.8 °F 33.8 °F 87% 30.15 in 9.0 mi East 4.6 mph - 0.01 in   Overcast
3:35 PM 39.2 °F - 33.8 °F 81% 30.14 in 10.0 mi Calm Calm - 0.01 in   Mostly Cloudy
3:55 PM 39.2 °F 35.9 °F 35.6 °F 87% 30.14 in 10.0 mi SSW 4.6 mph - 0.01 in   Overcast
4:15 PM 39.2 °F 35.0 °F 35.6 °F 87% 30.13 in 10.0 mi East 5.8 mph - N/A   Overcast
4:35 PM 39.2 °F - 33.8 °F 81% 30.13 in 10.0 mi Calm Calm - N/A   Mostly Cloudy
4:55 PM 39.2 °F - 32.0 °F 75% 30.12 in 10.0 mi Calm Calm - N/A   Mostly Cloudy
5:15 PM 39.2 °F - 33.8 °F 81% 30.11 in 10.0 mi Calm Calm - N/A   Overcast
5:35 PM 37.4 °F 32.1 °F 33.8 °F 87% 30.13 in 5.0 mi NNW 6.9 mph 16.1 mph 0.02 in   Mostly Cloudy
5:55 PM 33.8 °F 28.6 °F 30.2 °F 87% 30.13 in 2.5 mi NNE 5.8 mph - 0.05 in   Overcast
6:15 PM 35.6 °F 32.8 °F 32.0 °F 87% 30.13 in 10.0 mi NW 3.5 mph - 0.01 in   Overcast
6:35 PM 33.8 °F - 32.0 °F 93% 30.13 in 10.0 mi Calm Calm - 0.02 in   Mostly Cloudy
6:55 PM 33.8 °F - 32.0 °F 93% 30.13 in 10.0 mi Calm Calm - 0.02 in   Overcast
7:15 PM 35.6 °F - 33.8 °F 93% 30.13 in 10.0 mi Calm Calm - N/A   Overcast
7:35 PM 35.6 °F 31.7 °F 32.0 °F 87% 30.13 in 10.0 mi NNE 4.6 mph - N/A   Overcast
7:55 PM 33.8 °F - 32.0 °F 93% 30.13 in 10.0 mi Calm Calm - N/A   Overcast
8:15 PM 35.6 °F 31.7 °F 30.2 °F 81% 30.13 in 10.0 mi North 4.6 mph - N/A   Overcast
8:35 PM 33.8 °F 29.6 °F 30.2 °F 87% 30.13 in 10.0 mi NW 4.6 mph - N/A   Overcast
8:55 PM 33.8 °F 30.8 °F 30.2 °F 87% 30.13 in 10.0 mi NNW 3.5 mph - N/A   Partly Cloudy
9:15 PM 33.8 °F 29.6 °F 30.2 °F 87% 30.14 in 10.0 mi NNW 4.6 mph - N/A   Mostly Cloudy
9:35 PM 33.8 °F 29.6 °F 30.2 °F 87% 30.13 in 10.0 mi NW 4.6 mph - N/A   Overcast
9:55 PM 33.8 °F - 32.0 °F 93% 30.13 in 10.0 mi Calm Calm - N/A   Overcast
10:15 PM 33.8 °F - 32.0 °F 93% 30.13 in 10.0 mi North - - N/A   Overcast
10:35 PM 33.8 °F 29.6 °F 32.0 °F 93% 30.14 in 10.0 mi NNW 4.6 mph - N/A   Overcast
10:55 PM 33.8 °F 27.0 °F 30.2 °F 87% 30.14 in 10.0 mi North 8.1 mph - N/A   Mostly Cloudy
11:15 PM 33.8 °F 29.6 °F 30.2 °F 87% 30.15 in 10.0 mi North 4.6 mph - N/A   Mostly Cloudy
11:35 PM 33.8 °F 27.7 °F 30.2 °F 87% 30.14 in 10.0 mi North 6.9 mph - N/A   Partly Cloudy
11:55 PM 33.8 °F 26.4 °F 28.4 °F 81% 30.14 in 10.0 mi North 9.2 mph - N/A   Clear